Location: Bald Rock
(37.3738°N, 119.9354°W)
Time: 22:46:32
(UTC+00:00)

SL-16 R/B - Pass Details

Date: 08 September 2024
Orbit: 985 x 1006 km, 99.7° (Epoch: 12 October)

Event Time Altitude Azimuth Distance (km) Brightness Sun altitude
Exits shadow 12:28:57 16° 276° (W) 2,347 4.0 -13.9°
Drops below altitude 10° 12:31:58 10° 305° (NW) 2,768 4.5 -13.3°
Sets 12:35:34 0° 326° (NW) 3,727 5.4 -12.7°
